Regional Weather Roundup
Issued by NWS Jackson, KY

Home | Current Version | Previous Version | Graphics & Text | Print | Product List | Glossary On
Versions: 1 2 3 4 5 6 7 8 9 10 11 12 13 14 15 16 17 18 19 20 21 22 23 24 25 26 27 28 29 30 31 32 33 34 35 36 37 38 39 40 41 42 43 44 45 46 47 48 49
000
ASUS43 KJKL 011110
RWRJKL

EAST KENTUCKY HOURLY WEATHER ROUNDUP
NATIONAL WEATHER SERVICE JACKSON KY
700 AM EDT SAT AUG 01 2015

NOTE: "FAIR" INDICATES FEW OR NO CLOUDS BELOW 12,000 FEET WITH
NO SIGNIFICANT WEATHER AND/OR OBSTRUCTIONS TO VISIBILITY.

* THESE REPORTS ARE NOT UNDER NWS QUALITY CONTROL AND MAY NOT
  REPORT WEATHER SUCH AS PRECIPITATION AND FOG.

KYZ079-080-083-085-087-088-110-112-115-119-120-011200
...EASTERN KENTUCKY...

CITY           SKY/WX    TMP DP  RH WIND       PRES   REMARKS
JACKSON        CLEAR     63  60  90 CALM      30.03R
LONDON         CLEAR     62  57  83 CALM      30.04R
SOMERSET*      PTCLDY    61  61 100 CALM      30.05R
MONTICELLO*    CLEAR     60  60 100 CALM      30.06R FOG
WILLIAMSBURG*  CLEAR     57  57 100 CALM      30.05R
MIDDLESBORO*   FOG       60  60 100 CALM      30.06S VSB<1/4
HAZARD APT*    SUNNY     63  63 100 CALM      30.03R
BLACK MTN*       N/A     61  55  82 E1          N/A
PIKEVILLE APT* CLEAR     66  61  82 CALM      30.03R
BIG SANDY*     SUNNY     65  62  90 CALM      30.02R
MOREHEAD APT*  SUNNY     63  61  94 CALM      30.02R
$$

KYZ035-036-041-042-044-050-067-078-099-011200
...CENTRAL KENTUCKY...

CITY           SKY/WX    TMP DP  RH WIND       PRES   REMARKS
MT STERLING*   CLEAR     61  61 100 W5        30.02S
FLEMING/MASON* CLEAR     63  59  88 SW5       30.00S
DANVILLE*      CLEAR     64  61  88 CALM      30.03R
RICHMOND*      CLEAR     66  61  82 CALM      30.02R
LEXINGTON      CLEAR     64  61  90 S3        30.01R
FRANKFORT      CLEAR     64  60  87 CALM      29.99S
$$

KYZ091>093-OHZ055-061-077-WVZ005-015-034-035-042-011200
...SOUTHERN OHIO/WEST VIRGINIA...

CITY           SKY/WX    TMP DP  RH WIND       PRES   REMARKS
COVINGTON      PTCLDY    61  60  97 CALM      29.99R
COLUMBUS       PTCLDY    62  61  96 CALM      29.95S
DAYTON         PTCLDY    63  57  81 W7        29.98S
WILMINGTON     CLEAR     59  57  93 CALM      29.98R
HUNTINGTON     CLEAR     62  61  96 CALM      29.98R
CHARLESTON     PTCLDY    65  62  90 SW3       29.98R
PINEVILLE*     CLOUDY    59  59 100 MISG      30.09R FOG
BECKLEY        CLEAR     61  56  83 SW6       30.05S
BLUEFIELD      CLEAR     62  55  77 W7        30.08R
$$

VAZ002-007-008-TNZ017-027-036-066-071-011200
...SOUTHWEST VIRGINIA/EAST TENNESSEE...

CITY           SKY/WX    TMP DP  RH WIND       PRES   REMARKS
WISE*          CLEAR     64  55  72 W5        30.10R
ABINGDON*      CLEAR     59  57  93 CALM      30.07S
BRISTOL        PTCLDY    58  57  97 CALM      30.05S
KNOXVILLE      PTCLDY    62  60  93 NE5       30.02R
OAK RIDGE      CLEAR     63  60  90 CALM      30.04R
CROSSVILLE     CLEAR     61  57  87 CALM      30.08R
NASHVILLE      PTCLDY    66  64  93 CALM      30.02R
$$

...KEY TO REMARKS...
VSB - VISIBILITY IN MILES
WCI - WIND CHILL INDEX
HX  - HEAT INDEX

$$



USA.gov is the U.S. government's official web portal to all federal, state and local government web resources and services.